Location: Ar Ranvel
(48.3000°N, 4.8833°W)
Time: 21:44:56
(UTC+00:00)

Meteor 2-10 Rocket - Pass Details

Date: 26 October 2021
Orbit: 733 x 885 km, 81.2° (Epoch: 30 November)

Event Time Altitude Azimuth Distance (km) Brightness Sun altitude
Rises 03:33:42 0° 4° (N) 3,206 7.0 -33.8°
Reaches altitude 10° 03:38:44 10° 47° (NE) 2,252 6.6 -33.0°
Maximum altitude 03:39:22 10° 55° (NE) 2,235 6.7 -32.9°
Drops below altitude 10° 03:40:00 10° 62° (ENE) 2,247 6.7 -32.8°
Sets 03:44:57 0° 105° (ESE) 3,159 7.4 -32.1°
